UAL9 KEWR-CYHZ

Flight info

Callsign UAL9
Flight time 1h 18m
Altitude 41000
Route MERIT DCT HFD DCT PUT DCT ENE Q822 ALLEX FUNDY5
Aircraft A359/H-SDE2E3GHIJ3J4J5LM1ORWXY/LB1D1

Departure

Time 2026-04-30 03:40
Airport Newark Liberty International Airport (KEWR)

Arrival

Time 2026-04-30 04:59
Airport Halifax / Stanfield International Airport (CYHZ)
Time Latitude Longitude Altitude Speed Heading
2026-04-30 03:20 40.68552 -74.18020 26 ft 0 kts 38°
2026-04-30 03:29 40.68551 -74.18023 26 ft 4 kts 25°
2026-04-30 03:29 40.68535 -74.18040 31 ft 4 kts 33°
2026-04-30 03:30 40.68517 -74.18055 31 ft 4 kts 33°
2026-04-30 03:30 40.68495 -74.18076 31 ft 4 kts 43°
2026-04-30 03:30 40.68478 -74.18102 31 ft 4 kts 64°
2026-04-30 03:30 40.68472 -74.18125 31 ft 0 kts 88°
2026-04-30 03:32 40.68472 -74.18124 31 ft 1 kts 88°
2026-04-30 03:32 40.68462 -74.18087 32 ft 5 kts 139°
2026-04-30 03:32 40.68405 -74.18066 29 ft 11 kts 176°
2026-04-30 03:32 40.68348 -74.18043 29 ft 3 kts 159°
2026-04-30 03:33 40.68346 -74.18043 28 ft 0 kts 164°
2026-04-30 03:34 40.68335 -74.18040 29 ft 6 kts 168°
2026-04-30 03:34 40.68275 -74.18003 27 ft 9 kts 127°
2026-04-30 03:34 40.68279 -74.17939 28 ft 11 kts 69°
2026-04-30 03:34 40.68328 -74.17782 28 ft 27 kts 61°
2026-04-30 03:35 40.68477 -74.17537 31 ft 41 kts 40°
2026-04-30 03:35 40.68711 -74.17359 32 ft 36 kts 26°
2026-04-30 03:35 40.68936 -74.17214 27 ft 36 kts 26°
2026-04-30 03:35 40.69159 -74.17075 29 ft 34 kts 25°
2026-04-30 03:36 40.69363 -74.16945 28 ft 31 kts 26°
2026-04-30 03:36 40.69554 -74.16823 27 ft 30 kts 26°
2026-04-30 03:36 40.69742 -74.16704 26 ft 30 kts 26°
2026-04-30 03:36 40.69924 -74.16589 25 ft 21 kts 24°
2026-04-30 03:37 40.70016 -74.16533 24 ft 13 kts 25°
2026-04-30 03:37 40.70100 -74.16489 25 ft 12 kts 13°
2026-04-30 03:37 40.70177 -74.16473 28 ft 11 kts
2026-04-30 03:37 40.70246 -74.16454 27 ft 10 kts 25°
2026-04-30 03:38 40.70275 -74.16395 29 ft 0 kts 80°
2026-04-30 03:39 40.70275 -74.16394 29 ft 0 kts 80°
2026-04-30 03:39 40.70276 -74.16379 28 ft 4 kts 85°
2026-04-30 03:39 40.70274 -74.16320 29 ft 9 kts 94°
2026-04-30 03:39 40.70242 -74.16243 26 ft 12 kts 159°
2026-04-30 03:40 40.70098 -74.16320 27 ft 57 kts 206°
2026-04-30 03:40 40.69428 -74.16743 30 ft 153 kts 207°
2026-04-30 03:40 40.68306 -74.17484 538 ft 200 kts 206°
2026-04-30 03:40 40.66936 -74.18447 1328 ft 246 kts 207°
2026-04-30 03:41 40.65312 -74.19247 2148 ft 243 kts 191°
2026-04-30 03:41 40.64202 -74.19356 2600 ft 239 kts 180°
2026-04-30 03:41 40.62030 -74.19152 2891 ft 235 kts 182°
2026-04-30 03:41 40.60486 -74.19801 3076 ft 238 kts 214°
2026-04-30 03:42 40.59709 -74.20866 3488 ft 245 kts 235°
2026-04-30 03:42 40.59237 -74.23809 4697 ft 261 kts 274°
2026-04-30 03:42 40.59608 -74.25365 5325 ft 269 kts 293°
2026-04-30 03:42 40.60848 -74.27265 6197 ft 283 kts 321°
2026-04-30 03:43 40.62659 -74.28259 7064 ft 293 kts 349°
2026-04-30 03:43 40.64710 -74.28112 7980 ft 300 kts 15°
2026-04-30 03:43 40.66662 -74.27065 8891 ft 306 kts 26°
2026-04-30 03:43 40.68578 -74.25792 9793 ft 311 kts 27°
2026-04-30 03:44 40.70499 -74.24379 10482 ft 325 kts 34°
2026-04-30 03:44 40.72115 -74.22172 10876 ft 347 kts 59°
2026-04-30 03:44 40.73286 -74.19293 11279 ft 366 kts 67°
2026-04-30 03:44 40.74371 -74.16177 11803 ft 380 kts 68°
2026-04-30 03:45 40.75465 -74.12954 12516 ft 388 kts 68°
2026-04-30 03:45 40.76552 -74.09707 13236 ft 396 kts 68°
2026-04-30 03:45 40.77661 -74.06351 13963 ft 402 kts 68°
2026-04-30 03:45 40.78830 -74.02970 14669 ft 408 kts 62°
2026-04-30 03:46 40.80392 -73.99827 15397 ft 411 kts 53°
2026-04-30 03:46 40.82165 -73.96844 16142 ft 415 kts 50°
2026-04-30 03:46 40.84063 -73.93930 16822 ft 420 kts 47°
2026-04-30 03:46 40.86034 -73.91047 17571 ft 424 kts 46°
2026-04-30 03:47 40.88029 -73.88178 18406 ft 424 kts 46°
2026-04-30 03:47 40.90035 -73.85293 19039 ft 428 kts 46°
2026-04-30 03:47 40.92056 -73.82367 19678 ft 433 kts 47°
2026-04-30 03:47 40.94069 -73.79428 20350 ft 437 kts 47°
2026-04-30 03:48 40.96119 -73.76416 21054 ft 441 kts 47°
2026-04-30 03:48 40.98180 -73.73373 21744 ft 444 kts 47°
2026-04-30 03:48 41.00252 -73.70307 22414 ft 448 kts 47°
2026-04-30 03:48 41.02313 -73.67251 23062 ft 452 kts 48°
2026-04-30 03:49 41.04416 -73.64127 23751 ft 454 kts 48°
2026-04-30 03:49 41.06535 -73.60976 24206 ft 461 kts 48°
2026-04-30 03:49 41.08683 -73.57781 24725 ft 466 kts 48°
2026-04-30 03:49 41.10852 -73.54555 25276 ft 470 kts 48°
2026-04-30 03:50 41.13034 -73.51310 25829 ft 473 kts 49°
2026-04-30 03:50 41.15235 -73.48032 26369 ft 477 kts 49°
2026-04-30 03:50 41.17451 -73.44728 26912 ft 481 kts 49°
2026-04-30 03:50 41.19684 -73.41394 27459 ft 485 kts 49°
2026-04-30 03:51 41.21936 -73.38028 28004 ft 488 kts 49°
2026-04-30 03:51 41.24198 -73.34639 28505 ft 492 kts 49°
2026-04-30 03:51 41.26481 -73.31214 28978 ft 497 kts 49°
2026-04-30 03:51 41.28748 -73.27808 29415 ft 501 kts 49°
2026-04-30 03:52 41.31066 -73.24325 29898 ft 504 kts 49°
2026-04-30 03:52 41.33398 -73.20819 30327 ft 508 kts 49°
2026-04-30 03:52 41.35747 -73.17283 30700 ft 512 kts 49°
2026-04-30 03:52 41.37986 -73.13583 31115 ft 514 kts 57°
2026-04-30 03:53 41.39926 -73.09588 31504 ft 516 kts 60°
2026-04-30 03:53 41.41804 -73.05492 31859 ft 519 kts 61°
2026-04-30 03:53 41.43650 -73.01347 32219 ft 521 kts 62°
2026-04-30 03:53 41.45479 -72.97178 32550 ft 524 kts 62°
2026-04-30 03:54 41.47324 -72.92951 32856 ft 526 kts 62°
2026-04-30 03:54 41.49170 -72.88721 33215 ft 528 kts 62°
2026-04-30 03:54 41.51020 -72.84490 33565 ft 529 kts 62°
2026-04-30 03:54 41.52878 -72.80253 34013 ft 528 kts 62°
2026-04-30 03:55 41.54733 -72.76027 34400 ft 527 kts 61°
2026-04-30 03:55 41.56585 -72.71802 34725 ft 527 kts 61°
2026-04-30 03:55 41.58432 -72.67576 35009 ft 528 kts 61°
2026-04-30 03:55 41.60260 -72.63383 35283 ft 529 kts 61°
2026-04-30 03:56 41.62119 -72.59111 35559 ft 529 kts 60°
2026-04-30 03:56 41.63965 -72.54863 35886 ft 529 kts 60°
2026-04-30 03:56 41.65827 -72.50622 36174 ft 530 kts 59°
2026-04-30 03:56 41.67728 -72.46394 36474 ft 530 kts 59°
2026-04-30 03:57 41.69646 -72.42172 36743 ft 531 kts 58°
2026-04-30 03:57 41.71566 -72.37949 37028 ft 531 kts 58°
2026-04-30 03:57 41.73481 -72.33722 37307 ft 531 kts 58°
2026-04-30 03:57 41.75395 -72.29483 37597 ft 531 kts 58°
2026-04-30 03:58 41.77303 -72.25239 37869 ft 531 kts 58°
2026-04-30 03:58 41.79206 -72.20995 38241 ft 529 kts 59°
2026-04-30 03:58 41.81072 -72.16819 38566 ft 527 kts 59°
2026-04-30 03:58 41.82957 -72.12596 38839 ft 526 kts 59°
2026-04-30 03:59 41.84829 -72.08396 39144 ft 523 kts 59°
2026-04-30 03:59 41.86694 -72.04206 39342 ft 523 kts 59°
2026-04-30 03:59 41.88564 -72.00000 39501 ft 524 kts 59°
2026-04-30 03:59 41.90431 -71.95797 39670 ft 524 kts 59°
2026-04-30 04:00 41.92295 -71.91600 39841 ft 524 kts 59°
2026-04-30 04:00 41.94362 -71.87563 39924 ft 525 kts 50°
2026-04-30 04:00 41.96852 -71.83988 40040 ft 523 kts 40°
2026-04-30 04:00 41.99719 -71.81016 40204 ft 520 kts 32°
2026-04-30 04:01 42.02747 -71.78348 40380 ft 519 kts 30°
2026-04-30 04:01 42.05816 -71.75791 40575 ft 518 kts 29°
2026-04-30 04:01 42.08903 -71.73288 40749 ft 518 kts 29°
2026-04-30 04:01 42.11992 -71.70802 40917 ft 518 kts 28°
2026-04-30 04:02 42.18187 -71.65793 40966 ft 519 kts 29°
2026-04-30 04:02 42.24329 -71.60769 40945 ft 520 kts 29°
2026-04-30 04:03 42.29601 -71.56429 40954 ft 519 kts 29°
2026-04-30 04:03 42.35779 -71.51326 40957 ft 521 kts 29°
2026-04-30 04:04 42.41973 -71.46200 40956 ft 522 kts 29°
2026-04-30 04:04 42.48156 -71.41074 40942 ft 522 kts 29°
2026-04-30 04:05 42.54338 -71.35934 40944 ft 521 kts 29°
2026-04-30 04:05 42.60509 -71.30792 40954 ft 520 kts 29°
2026-04-30 04:06 42.66676 -71.25641 40961 ft 520 kts 29°
2026-04-30 04:06 42.72837 -71.20486 40970 ft 519 kts 29°
2026-04-30 04:07 42.78977 -71.15336 40976 ft 518 kts 30°
2026-04-30 04:08 42.88131 -71.07634 40974 ft 517 kts 30°
2026-04-30 04:08 42.94238 -71.02481 40968 ft 516 kts 30°
2026-04-30 04:09 43.00337 -70.97320 40960 ft 516 kts 30°
2026-04-30 04:09 43.06435 -70.92148 40953 ft 515 kts 30°
2026-04-30 04:10 43.12527 -70.86969 40954 ft 515 kts 30°
2026-04-30 04:10 43.18607 -70.81788 40951 ft 515 kts 30°
2026-04-30 04:11 43.24695 -70.76590 40956 ft 515 kts 30°
2026-04-30 04:11 43.30767 -70.71392 40984 ft 515 kts 30°
2026-04-30 04:12 43.36806 -70.66185 40978 ft 515 kts 32°
2026-04-30 04:12 43.42125 -70.59583 40980 ft 518 kts 51°
2026-04-30 04:12 43.44128 -70.55465 40982 ft 519 kts 62°
2026-04-30 04:13 43.45712 -70.50989 40981 ft 520 kts 66°
2026-04-30 04:13 43.48550 -70.41816 40977 ft 521 kts 68°
2026-04-30 04:14 43.51275 -70.32563 40991 ft 520 kts 68°
2026-04-30 04:14 43.54009 -70.23337 41005 ft 520 kts 68°
2026-04-30 04:15 43.56748 -70.14173 40999 ft 520 kts 68°
2026-04-30 04:15 43.59503 -70.04956 41007 ft 520 kts 68°
2026-04-30 04:16 43.62254 -69.95720 41011 ft 519 kts 68°
2026-04-30 04:16 43.64988 -69.86501 41007 ft 518 kts 68°
2026-04-30 04:17 43.67709 -69.77295 41009 ft 518 kts 68°
2026-04-30 04:17 43.70424 -69.68078 41014 ft 518 kts 68°
2026-04-30 04:18 43.73130 -69.58861 41006 ft 518 kts 68°
2026-04-30 04:18 43.75738 -69.49583 41015 ft 516 kts 69°
2026-04-30 04:19 43.78302 -69.40310 41015 ft 516 kts 69°
2026-04-30 04:19 43.80863 -69.31035 41019 ft 515 kts 69°
2026-04-30 04:20 43.83415 -69.21762 41017 ft 515 kts 69°
2026-04-30 04:20 43.85945 -69.12538 41012 ft 514 kts 70°
2026-04-30 04:21 43.88474 -69.03284 41012 ft 513 kts 70°
2026-04-30 04:21 43.90992 -68.94038 41007 ft 513 kts 70°
2026-04-30 04:22 43.93501 -68.84789 41012 ft 512 kts 70°
2026-04-30 04:22 43.95986 -68.75590 41012 ft 512 kts 70°
2026-04-30 04:23 43.98477 -68.66337 41017 ft 511 kts 70°
2026-04-30 04:23 44.00958 -68.57084 41007 ft 511 kts 70°
2026-04-30 04:24 44.03436 -68.47806 41028 ft 511 kts 70°
2026-04-30 04:24 44.05903 -68.38533 41020 ft 512 kts 70°
2026-04-30 04:25 44.08370 -68.29225 41024 ft 512 kts 71°
2026-04-30 04:25 44.10816 -68.19958 41023 ft 513 kts 71°
2026-04-30 04:26 44.13271 -68.10625 41038 ft 513 kts 71°
2026-04-30 04:26 44.15718 -68.01283 41041 ft 513 kts 71°
2026-04-30 04:27 44.18158 -67.91932 41023 ft 513 kts 71°
2026-04-30 04:27 44.20600 -67.82536 41038 ft 517 kts 71°
2026-04-30 04:28 44.23041 -67.73101 41036 ft 518 kts 71°
2026-04-30 04:28 44.25480 -67.63645 41037 ft 518 kts 71°
2026-04-30 04:29 44.27895 -67.54240 41052 ft 518 kts 71°
2026-04-30 04:29 44.30319 -67.44754 41044 ft 518 kts 71°
2026-04-30 04:30 44.32738 -67.35260 41048 ft 520 kts 71°
2026-04-30 04:30 44.34748 -67.27339 41064 ft 521 kts 71°
2026-04-30 04:31 44.37161 -67.17794 41055 ft 521 kts 71°
2026-04-30 04:31 44.39567 -67.08241 41059 ft 521 kts 71°
2026-04-30 04:32 44.41857 -66.98631 41057 ft 520 kts 76°
2026-04-30 04:32 44.43584 -66.88814 41055 ft 520 kts 77°
2026-04-30 04:33 44.45264 -66.78975 41065 ft 520 kts 77°
2026-04-30 04:33 44.46945 -66.69122 41065 ft 520 kts 77°
2026-04-30 04:34 44.48620 -66.59267 41058 ft 520 kts 77°
2026-04-30 04:34 44.49453 -66.54343 40946 ft 520 kts 77°
2026-04-30 04:34 44.50274 -66.49482 40377 ft 518 kts 77°
2026-04-30 04:34 44.51104 -66.44551 39592 ft 522 kts 77°
2026-04-30 04:35 44.51937 -66.39583 38796 ft 526 kts 77°
2026-04-30 04:35 44.52772 -66.34590 37938 ft 526 kts 77°
2026-04-30 04:35 44.53604 -66.29604 37240 ft 524 kts 77°
2026-04-30 04:35 44.54429 -66.24643 36539 ft 521 kts 77°
2026-04-30 04:36 44.55246 -66.19708 35836 ft 519 kts 77°
2026-04-30 04:36 44.56059 -66.14788 35086 ft 517 kts 76°
2026-04-30 04:36 44.56870 -66.09868 34305 ft 517 kts 76°
2026-04-30 04:36 44.57680 -66.04948 33431 ft 516 kts 76°
2026-04-30 04:37 44.58484 -66.00049 32488 ft 516 kts 76°
2026-04-30 04:37 44.59277 -65.95206 31605 ft 516 kts 75°
2026-04-30 04:37 44.60078 -65.90296 30691 ft 516 kts 75°
2026-04-30 04:37 44.60877 -65.85388 29892 ft 514 kts 75°
2026-04-30 04:38 44.61669 -65.80513 29242 ft 507 kts 75°
2026-04-30 04:38 44.62446 -65.75713 28627 ft 501 kts 75°
2026-04-30 04:38 44.63210 -65.70981 27983 ft 494 kts 75°
2026-04-30 04:38 44.63962 -65.66304 27349 ft 489 kts 76°
2026-04-30 04:39 44.64709 -65.61650 26751 ft 484 kts 76°
2026-04-30 04:39 44.65443 -65.57067 26134 ft 479 kts 76°
2026-04-30 04:39 44.66168 -65.52521 25546 ft 474 kts 76°
2026-04-30 04:39 44.66885 -65.48016 24942 ft 469 kts 77°
2026-04-30 04:40 44.67582 -65.43621 24361 ft 465 kts 77°
2026-04-30 04:40 44.68282 -65.39194 23757 ft 461 kts 77°
2026-04-30 04:40 44.68973 -65.34818 23100 ft 456 kts 77°
2026-04-30 04:40 44.69652 -65.30494 22481 ft 450 kts 77°
2026-04-30 04:41 44.70321 -65.26225 21901 ft 444 kts 77°
2026-04-30 04:41 44.70982 -65.22000 21297 ft 439 kts 77°
2026-04-30 04:41 44.71635 -65.17820 20704 ft 435 kts 77°
2026-04-30 04:41 44.72280 -65.13680 20116 ft 431 kts 77°
2026-04-30 04:42 44.72917 -65.09579 19532 ft 428 kts 77°
2026-04-30 04:42 44.73540 -65.05560 18930 ft 425 kts 77°
2026-04-30 04:42 44.74166 -65.01512 18314 ft 422 kts 77°
2026-04-30 04:42 44.74786 -64.97497 17670 ft 418 kts 78°
2026-04-30 04:43 44.75398 -64.93522 16947 ft 414 kts 79°
2026-04-30 04:43 44.75992 -64.89671 16312 ft 393 kts 80°
2026-04-30 04:43 44.76553 -64.86012 15749 ft 375 kts 80°
2026-04-30 04:43 44.77103 -64.82393 15194 ft 379 kts 80°
2026-04-30 04:44 44.77653 -64.78769 14635 ft 378 kts 80°
2026-04-30 04:44 44.78202 -64.75165 14130 ft 376 kts 80°
2026-04-30 04:44 44.78744 -64.71583 13552 ft 372 kts 80°
2026-04-30 04:44 44.79281 -64.68030 12979 ft 370 kts 80°
2026-04-30 04:45 44.79813 -64.64504 12427 ft 363 kts 80°
2026-04-30 04:45 44.80332 -64.61055 11872 ft 361 kts 80°
2026-04-30 04:45 44.80850 -64.57597 11326 ft 361 kts 80°
2026-04-30 04:45 44.81360 -64.54202 11052 ft 340 kts 80°
2026-04-30 04:46 44.81829 -64.51093 10895 ft 310 kts 81°
2026-04-30 04:46 44.82258 -64.48240 10771 ft 286 kts 79°
2026-04-30 04:46 44.82656 -64.45589 10639 ft 272 kts 80°
2026-04-30 04:46 44.83043 -64.42977 10520 ft 277 kts 81°
2026-04-30 04:47 44.83438 -64.40312 10408 ft 278 kts 80°
2026-04-30 04:47 44.83831 -64.37655 10285 ft 277 kts 80°
2026-04-30 04:47 44.84226 -64.34992 10096 ft 280 kts 81°
2026-04-30 04:47 44.84620 -64.32313 9797 ft 281 kts 80°
2026-04-30 04:48 44.85024 -64.29560 9626 ft 292 kts 81°
2026-04-30 04:48 44.85436 -64.26754 9393 ft 291 kts 80°
2026-04-30 04:48 44.85846 -64.23957 8924 ft 291 kts 81°
2026-04-30 04:48 44.86237 -64.21181 8539 ft 287 kts 83°
2026-04-30 04:49 44.86339 -64.18404 8229 ft 282 kts 93°
2026-04-30 04:49 44.86273 -64.15650 7930 ft 280 kts 94°
2026-04-30 04:49 44.86188 -64.12918 7616 ft 278 kts 95°
2026-04-30 04:49 44.86105 -64.10206 7322 ft 275 kts 95°
2026-04-30 04:50 44.86024 -64.07518 7022 ft 273 kts 95°
2026-04-30 04:50 44.85945 -64.04856 6713 ft 271 kts 94°
2026-04-30 04:50 44.85867 -64.02214 6412 ft 268 kts 94°
2026-04-30 04:50 44.85791 -63.99634 6232 ft 257 kts 94°
2026-04-30 04:51 44.85721 -63.97174 6098 ft 245 kts 94°
2026-04-30 04:51 44.85652 -63.94825 5953 ft 235 kts 94°
2026-04-30 04:51 44.85588 -63.92579 5823 ft 224 kts 94°
2026-04-30 04:51 44.85524 -63.90409 5686 ft 220 kts 94°
2026-04-30 04:52 44.85460 -63.88266 5486 ft 219 kts 94°
2026-04-30 04:52 44.85403 -63.86125 5246 ft 218 kts 92°
2026-04-30 04:52 44.85628 -63.84034 5048 ft 221 kts 71°
2026-04-30 04:52 44.86522 -63.82294 4823 ft 223 kts 41°
2026-04-30 04:53 44.87829 -63.81115 4658 ft 224 kts 32°
2026-04-30 04:53 44.89204 -63.80078 4458 ft 225 kts 31°
2026-04-30 04:53 44.90586 -63.79047 4267 ft 224 kts 31°
2026-04-30 04:53 44.91951 -63.77995 4068 ft 223 kts 34°
2026-04-30 04:54 44.93251 -63.76813 3885 ft 221 kts 38°
2026-04-30 04:54 44.94403 -63.75400 3647 ft 221 kts 52°
2026-04-30 04:54 44.95099 -63.73452 3013 ft 228 kts 84°
2026-04-30 04:54 44.94977 -63.71276 2768 ft 218 kts 108°
2026-04-30 04:55 44.94572 -63.69275 2600 ft 205 kts 107°
2026-04-30 04:55 44.94321 -63.67377 2377 ft 188 kts 101°
2026-04-30 04:55 44.94191 -63.65648 2218 ft 170 kts 100°
2026-04-30 04:55 44.94066 -63.64065 2042 ft 153 kts 103°
2026-04-30 04:56 44.93903 -63.62654 1893 ft 139 kts 106°
2026-04-30 04:56 44.93674 -63.61344 1811 ft 136 kts 111°
2026-04-30 04:56 44.93354 -63.60092 1798 ft 135 kts 117°
2026-04-30 04:56 44.92878 -63.58958 1785 ft 134 kts 128°
2026-04-30 04:57 44.92366 -63.57895 1590 ft 126 kts 124°
2026-04-30 04:57 44.91908 -63.56892 1416 ft 119 kts 124°
2026-04-30 04:57 44.91446 -63.55927 1230 ft 120 kts 125°
2026-04-30 04:57 44.90972 -63.54949 1046 ft 121 kts 124°
2026-04-30 04:58 44.90489 -63.53995 873 ft 122 kts 124°
2026-04-30 04:58 44.90005 -63.53014 697 ft 121 kts 124°
2026-04-30 04:58 44.89521 -63.52043 564 ft 120 kts 124°
2026-04-30 04:58 44.89044 -63.51091 469 ft 118 kts 124°
2026-04-30 04:59 44.88608 -63.50214 463 ft 90 kts 124°
2026-04-30 04:59 44.88406 -63.49858 464 ft 19 kts 161°
2026-04-30 04:59 44.88297 -63.49919 464 ft 13 kts 231°
2026-04-30 04:59 44.88299 -63.50028 464 ft 12 kts 303°
2026-04-30 05:00 44.88351 -63.50144 465 ft 16 kts 294°
2026-04-30 05:00 44.88365 -63.50300 464 ft 3 kts 266°
2026-04-30 05:02 44.88365 -63.50307 464 ft 1 kts 267°
2026-04-30 05:02 44.88362 -63.50354 464 ft 12 kts 265°
2026-04-30 05:02 44.88346 -63.50548 464 ft 28 kts 263°
2026-04-30 05:02 44.88330 -63.50832 464 ft 30 kts 266°
2026-04-30 05:03 44.88353 -63.51086 464 ft 26 kts 303°
2026-04-30 05:03 44.88472 -63.51209 464 ft 22 kts 350°
2026-04-30 05:03 44.88577 -63.51282 463 ft 15 kts 294°
2026-04-30 05:03 44.88605 -63.51349 463 ft 0 kts 306°